Etusivu
METAR-TAF:

METAR-TAF

Lentoasemat :

Kelibia, Tunisia

Leveyspiiri: 36-51N, Pituuspiiri: 011-05E, korkeus merenpinnasta: 29 m

Tämänhetkinen sää

Tämä raportti tehtiin 31 minuuttia sitten, kello 13.00 UTC
Tuuli 4 kn pohjoisen/luoteesta, vaihdellen lännen/luoteen ja pohjoisen/koillisen välillä
Lämpötila 17°C
Kosteus 77%
Ilmanpaine 1022 hPa
Näkyvyys 10 km tai enemmän
Muutamia pilviä 2000 ft:n korkeudessa

METAR: DTTL 251300Z 34004KT 290V030 9999 FEW020 17/13 Q1022

Aika: 14:31 (13:31 UTC)


TAF: puuttuu

Säähavainnot ja -ennusteet yli 4000 lentoasemalta (METAR- ja TAF-raportit).

Käytössä olevat sääasemat on merkitty karttaan keltaisilla ja punaisilla pisteillä.

Aseta hiiri pisteen päälle nähdäksesi sääaseman nimen.

Klikkaa sitten nähdäksesi säähavainnot ja -ennusteet.

Kartan vaihtaminen: klikkaa mustalla rastilla varustettuja vihreitä pisteitä, niin voit zoomata sisään; viivalla varustettua vihreää pistettä, niin voit zoomata ulos tai vihreitä nuolia, niin pääset viereisille kartoille.


METAR-TAF: